Location: Unspecified
(58.7730°N, 5.8460°E)
Time: 04:46:03
(UTC+02:00)

Cosmos 2058 - Visible Passes

Search period start: 25 October 2014 00:00
Search period end: 03 November 2014 23:00
Orbit: 571 x 592 km, 82.5° (Epoch: 24 October)

Date Brightness Start Highest point End Pass type
(mag) Time Alt. Az. Time Alt. Az. Time Alt. Az.
25 Oct 5.9 04:57:13 10° ESE 04:59:50 16° E 05:02:27 10° NE visible
25 Oct 2.9 06:32:06 10° SSW 06:36:19 88° WNW 06:40:36 10° NNE visible
26 Oct 5.5 04:02:09 10° SE 04:05:15 20° E 04:08:23 10° NE visible
26 Oct 2.9 05:37:43 10° SSW 05:41:55 69° WNW 05:46:10 10° N visible
27 Oct 5.1 04:07:13 10° SE 04:10:41 25° E 04:14:11 10° NNE visible
27 Oct 3.0 05:43:23 10° SSW 05:47:31 54° WNW 05:51:43 10° N visible
28 Oct 4.7 04:13:37 17° SE 04:16:08 32° E 04:19:55 10° NNE visible
28 Oct 3.3 05:50:04 16° SW 05:53:09 43° WNW 05:57:14 10° N visible
29 Oct 4.2 04:20:12 30° SE 04:21:36 40° E 04:25:36 10° NNE visible
29 Oct 3.6 05:56:38 21° WSW 05:58:47 34° WNW 06:02:42 10° N visible
30 Oct 3.7 04:26:35 49° ESE 04:27:05 52° E 04:31:14 10° NNE visible
30 Oct 3.9 06:03:00 23° W 06:04:26 28° WNW 06:08:08 10° N visible
31 Oct 6.0 02:56:23 12° ENE 02:56:23 12° ENE 02:57:57 10° NE visible
31 Oct 3.3 04:32:48 66° ENE 04:32:48 66° ENE 04:36:49 10° NNE visible
31 Oct 4.1 06:09:13 21° WNW 06:10:06 23° WNW 06:13:32 10° N visible
01 Nov 5.9 03:02:30 14° ENE 03:02:30 14° ENE 03:04:06 10° NE visible
01 Nov 3.4 04:38:54 58° NNE 04:38:54 58° NNE 04:42:22 10° NNE visible
01 Nov 4.4 06:15:19 19° WNW 06:15:47 19° NW 06:18:53 10° N visible
02 Nov 5.8 03:08:31 16° ENE 03:08:31 16° ENE 03:10:00 10° NE visible
02 Nov 3.7 04:44:55 43° N 04:44:55 43° N 04:47:53 10° N visible
02 Nov 4.6 06:21:19 16° NW 06:21:29 16° NW 06:24:09 10° NNW visible
03 Nov 5.7 03:14:27 17° NE 03:14:27 17° NE 03:15:46 10° NNE visible
03 Nov 4.1 04:50:51 33° N 04:50:51 33° N 04:53:22 10° N visible
03 Nov 4.8 06:27:15 13° NW 06:27:15 13° NW 06:29:17 10° NNW visible
